Regional & State Weather Roundups


256 
ASUS43 KLOT 221409
RWRIL 
ILLINOIS REGIONAL WEATHER ROUNDUP
NATIONAL WEATHER SERVICE CHICAGO/ROMEOVILLE IL
900 AM CDT SAT JUL 22 2017
NOTE: "FAIR" INDICATES FEW OR NO CLOUDS BELOW 12,000 FEET WITH NO
SIGNIFICANT WEATHER AND/OR OBSTRUCTIONS TO VISIBILITY.
* THESE STATIONS ARE NOT UNDER NWS QUALITY CONTROL. THEY ALSO MAY NOT
  REPORT WEATHER SUCH AS PRECIPITATION OR FOG.
ILZ001-002-007-009-015-016-024-221500-
NORTHWEST ILLINOIS
  
CITY           SKY/WX    TMP DP  RH WIND       PRES   REMARKS
MOLINE         CLOUDY    74  68  81 W5        29.81R                  
STERLING*      CLOUDY    72  68  87 NW5       29.84R                  
SAVANNA*       CLOUDY    72  69  90 CALM      29.84R                  
$$
ILZ003-004-008-010-011-017-018-221500-
NORTH CENTRAL ILLINOIS
  
CITY           SKY/WX    TMP DP  RH WIND       PRES   REMARKS
ROCKFORD       CLOUDY    75  68  78 W8        29.83R                  
FREEPORT*      CLOUDY    72  67  84 SW5       29.85R                  
ROCHELLE*      CLOUDY    72  68  88 W8        29.84R                  
DE KALB*       CLOUDY    71  69  90 NW13      29.84R                  
PERU*          CLOUDY    70  66  88 SW6       29.81R                  
$$
ILZ005-006-012>014-019>023-221500-
NORTHEAST ILLINOIS
  
CITY           SKY/WX    TMP DP  RH WIND       PRES   REMARKS
CHICAGO-OHARE  CLOUDY    74  69  85 N9        29.80R                  
CHICAGO-MIDWAY CLOUDY    74  69  85 E6        29.78R                  
AURORA         CLOUDY    73  68  84 CALM      29.79R                  
LANSING*       CLOUDY    70  65  84 W10G18    29.75R                  
JOLIET*        CLOUDY    73  69  89 SW3       29.78R                  
WAUKEGAN       CLOUDY    72  70  93 NW5       29.80R                  
DUPAGE AIRPORT CLOUDY    72  70  93 N6        29.80R                  
WHEELING       CLOUDY    73  71  93 CALM      29.81R                  
MORRIS*        CLOUDY    72  67  85 SW7       29.76R                  
ROMEOVILLE*    CLOUDY    71  65  82 NE7G24    29.81R                  
NORTHERLY ISL    N/A     73  68  84 CALM        N/A                   
$$
LMZ740>746-221500-
SOUTHERN LAKE MICHIGAN
  
STATION/POSITION SKY/WX   TEMP    WIND        PRES    VSBY  WAVE
                          AIR SEA DIR/SP/G                  HT/PER
                          (F)     (DEG/KT/KT) (MB)    (MI)  (FT/S)
SOUTHERN BUOY              71 70  320/  6/  6 1008.5          2/ 5
WILMETTE HARBOR            72 72  350/  2/  4   N/A           1/ 2
HARRISON CRIB              74     100/  7/  8   N/A
BURNHAM HARBOR             73                   N/A
CALUMET HARBOR             73     360/ 13/ 17 1008.7R
BURNS HARBOR               72      30/ 19/ 21 1008.5F
MICHIGAN CITY              72     360/  7/  7   N/A
MICHIGAN CITY 6N           74 74   60/  4/  6   N/A           2
ST. JOSEPH                 74 74  280/  2/  4 1008.4          3/ 5
$$
ILZ025>027-034>036-040-047-049-050-058-095>099-221500-
WEST-CENTRAL ILLINOIS
  
CITY           SKY/WX    TMP DP  RH WIND       PRES   REMARKS
QUINCY         CLOUDY    72  69  90 SE14      29.89R                  
GALESBURG*     CLOUDY    69  68  95 S10       29.85S                  
MACOMB*        RAIN      69  67  96 SE13      29.87F                  
JACKSONVILLE*  LGT RAIN  69  67  94 E17       29.90F                  
PITTSFIELD*    CLOUDY    74  69  82 E13G18    29.92F                  
$$
ILZ028>032-037-038-041>044-048-051>054-059>061-221500-
CENTRAL ILLINOIS
  
CITY           SKY/WX    TMP DP  RH WIND       PRES   REMARKS
PONTIAC        CLOUDY    70  70  99 S16       29.78F                  
BLOOMINGTON    LGT RAIN  68  67  96 S9        29.89F                  
DECATUR        TSTM      70  68  93 CALM      29.98R FOG              
PEORIA         CLOUDY    70  69  97 S16       29.85F                  
LACON*         CLOUDY    69  68  96 S10       29.80S                  
LINCOLN*       CLOUDY    70  69  98 S7        29.91F                  
SPRINGFIELD    RAIN      70  69  97 SE17      29.90F                  
TAYLORVILLE    CLOUDY    72  69  89 N15       30.01R                  
$$
ILZ033-039-045-046-055>057-062-063-221500-
EAST-CENTRAL ILLINOIS
  
CITY           SKY/WX    TMP DP  RH WIND       PRES   REMARKS
CHAMPAIGN      RAIN      70  68  93 CALM      29.95R FOG              
RANTOUL*       RAIN      71  71  98 S3        29.91F                  
MATTOON        CLOUDY    77  71  82 N25G36    29.97R                  
PARIS*         PTSUNNY   78  73  85 NW17G24   29.97R HX  81           
$$
ILZ079-100>102-221500-
SOUTHWEST ILLINOIS
  
CITY           SKY/WX    TMP DP  RH WIND       PRES   REMARKS
ALTON          PTSUNNY   84  75  74 NW12G17   29.95R HX  92           
BELLEVILLE     SUNNY     88  74  64 NW9       29.92R HX  97           
CAHOKIA*       SUNNY     90  73  57 VRB7      29.91R HX  98           
SPARTA*        SUNNY     86  75  68 SW6       29.93R HX  95           
$$
ILZ064>066-069>071-074>076-080>082-084>086-088>090-092>094-221500-
SOUTH-CENTRAL ILLINOIS
  
CITY           SKY/WX    TMP DP  RH WIND       PRES   REMARKS
CARBONDALE     SUNNY     86  78  77 W10       29.93R HX  98           
CAIRO*         SUNNY     85  77  77 SW5       29.94R HX  96           
EFFINGHAM*     PTSUNNY   86  76  71 W12G18    29.95R HX  96           
MARION         SUNNY     88  79  74 SW9       29.94R HX 102           
MT. VERNON     SUNNY     87  76  69 W7        29.93R HX  97           
CENTRALIA*     SUNNY     88  77  69 W10       29.92R HX 100           
SALEM*         SUNNY     87  75  67 W6        29.93R HX  97           
METROPOLIS*    SUNNY     86  77  74 SW6       29.96R HX  98           
$$
ILZ067-068-072-073-078-083-087-091-221500-
SOUTHEAST ILLINOIS
  
CITY           SKY/WX    TMP DP  RH WIND       PRES   REMARKS
LAWRENCEVILLE  SUNNY     87  76  69 W10       29.92R HX  97           
FLORA*         SUNNY     88  77  69 W8        29.92R HX  99           
FAIRFIELD*     SUNNY     85  77  76 SW3       29.92R HX  96           
HARRISBURG*    SUNNY     86  78  75 SW5       29.94R HX  98           
ROBINSON*      SUNNY     85  76  76 W13G22    29.91R HX  94           
CARMI*         SUNNY     85  78  81 SW9       29.93R HX  96           
$$
ABBREVIATIONS USED IN REMARKS
   TC - TEMPERATURE IN CELSIUS
  WCI - WIND CHILL INDEX
   HX - HEAT INDEX
  VSB - VISIBILITY
$$